軌道要素
Epoch 2010 Dec. 30.0 TT = JDT 2455560.5
T 2011 Jan. 17.98601 TT MPCW
q 1.9361737 (2000.0) P Q
n 0.30440364 Peri. 143.90506 +0.44849046 -0.88969311
a 2.1886156 Node 279.30799 +0.79840460 +0.44176933
e 0.1153432 Incl. 4.96773 +0.40175415 +0.11526503
P 3.24
From 184 observations 2005 Jan. 17-2018 Mar. 7, mean residual 0".3.
|